| time (UTC) | temp F | wind direction | speed knots | gust knots | rain 1hr in | rain 24hr in | rain mn in | humidity % | barometer mb |
| 20260905001528 | 67 | 55 | 0.9 | 3.5 | 0.00 | 0.00 | 0.00 | 54 | 1016.1 |
| 20260905000031 | 64 | 47 | 0.0 | 1.7 | 0.00 | 0.00 | 0.00 | 62 | 1016.1 |
| 20260904234531 | 62 | 64 | 0.0 | 0.9 | 0.00 | 0.00 | 0.00 | 64 | 1016.2 |
| 20260904233030 | 62 | 172 | 0.0 | 2.6 | 0.00 | 0.00 | 0.00 | 62 | 1016.6 |
| 20260904231533 | 63 | 265 | 0.9 | 2.6 | 0.00 | 0.00 | 0.00 | 56 | 1016.3 |
| 20260904230029 | 66 | 327 | 0.9 | 3.5 | 0.00 | 0.00 | 0.00 | 50 | 1016.0 |
| 20260904224533 | 68 | 34 | 0.9 | 2.6 | 0.00 | 0.00 | 0.00 | 46 | 1015.6 |
| 20260904223030 | 0 | 0 | 0.0 | 0.0 | 0.00 | 0.00 | 0.00 | 100 | |
| 20260904220030 | 0 | 0 | 0.0 | 0.0 | 0.00 | 0.00 | 0.00 | 100 | |
| 20260904214533 | 0 | 0 | 0.0 | 0.0 | 0.00 | 0.00 | 0.00 | 100 | |
| 20260904213030 | 70 | 152 | 0.9 | 2.6 | 0.00 | 0.00 | 0.00 | 44 | 1015.5 |
| 20260904211531 | 70 | 168 | 1.7 | 3.5 | 0.00 | 0.00 | 0.00 | 45 | 1015.7 |
| 20260904210028 | 0 | 0 | 0.0 | 0.0 | 0.00 | 0.00 | 0.00 | 100 | |
| 20260904204532 | 0 | 0 | 0.0 | 0.0 | 0.00 | 0.00 | 0.00 | 100 | |
| 20260904203029 | 0 | 0 | 0.0 | 0.0 | 0.00 | 0.00 | 0.00 | 100 | |
| 20260904201529 | 0 | 0 | 0.0 | 0.0 | 0.00 | 0.00 | 0.00 | 100 | |
| 20260904200030 | 70 | 177 | 0.9 | 2.6 | 0.00 | 0.00 | 0.00 | 46 | 1015.8 |
| 20260904194530 | 69 | 151 | 0.9 | 3.5 | 0.00 | 0.00 | 0.00 | 47 | 1016.1 |
| 20260904193029 | 70 | 24 | 0.0 | 0.0 | 0.00 | 0.00 | 0.00 | 50 | 1016.3 |
| 20260904191531 | 70 | 74 | 0.0 | 1.7 | 0.00 | 0.00 | 0.00 | 48 | 1016.3 |
| 20260904190030 | 0 | 0 | 0.0 | 0.0 | 0.00 | 0.00 | 0.00 | 100 | |
| 20260904183031 | 73 | 39 | 0.0 | 3.5 | 0.00 | 0.00 | 0.00 | 47 | 1016.3 |
| 20260904181532 | 73 | 51 | 0.0 | 3.5 | 0.00 | 0.00 | 0.00 | 48 | 1016.3 |
| 20260904170106 | 59 | 292 | 0.0 | 0.0 | 0.00 | 0.00 | 0.00 | 70 | 1016.5 |
| 20260904163033 | 59 | 297 | 0.0 | 0.9 | 0.00 | 0.00 | 0.00 | 73 | 1016.3 |
| 20260904161528 | 57 | 225 | 0.0 | 0.0 | 0.00 | 0.00 | 0.00 | 83 | 1016.4 |
| 20260904160105 | 55 | 225 | 0.0 | 0.0 | 0.00 | 0.00 | 0.00 | 87 | 1016.4 |
| 20260904154530 | 53 | 225 | 0.0 | 0.0 | 0.00 | 0.00 | 0.00 | 88 | 1016.4 |
| 20260904153107 | 52 | 225 | 0.0 | 0.9 | 0.00 | 0.00 | 0.00 | 89 | 1016.3 |
| 20260904151533 | 52 | 225 | 0.0 | 0.0 | 0.00 | 0.00 | 0.00 | 90 | 1016.2 |
| 20260904143034 | 50 | 225 | 0.0 | 0.0 | 0.00 | 0.00 | 0.00 | 91 | 1015.8 |
| 20260904141528 | 50 | 225 | 0.0 | 1.7 | 0.00 | 0.00 | 0.00 | 91 | 1015.7 |
| 20260904134530 | 48 | 227 | 0.0 | 1.7 | 0.00 | 0.00 | 0.00 | 92 | 1015.4 |
| 20260904133030 | 48 | 247 | 0.0 | 1.7 | 0.00 | 0.00 | 0.00 | 91 | 1015.2 |
| 20260904131610 | 48 | 247 | 0.0 | 0.0 | 0.00 | 0.00 | 0.00 | 90 | 1015.0 |
| 20260904130106 | 49 | 247 | 0.0 | 0.0 | 0.00 | 0.00 | 0.00 | 90 | 1014.9 |
| 20260904124606 | 50 | 247 | 0.0 | 0.0 | 0.00 | 0.00 | 0.00 | 89 | 1015.0 |
| 20260904123030 | 50 | 247 | 0.0 | 0.9 | 0.00 | 0.00 | 0.00 | 89 | 1014.9 |
| 20260904121528 | 50 | 247 | 0.0 | 0.9 | 0.00 | 0.00 | 0.00 | 88 | 1014.9 |
| 20260904114531 | 50 | 247 | 0.0 | 0.9 | 0.00 | 0.00 | 0.00 | 88 | 1014.7 |
| 20260904113030 | 50 | 247 | 0.0 | 0.0 | 0.00 | 0.00 | 0.00 | 87 | 1014.5 |
| 20260904111530 | 50 | 247 | 0.0 | 1.7 | 0.00 | 0.00 | 0.00 | 87 | 1014.5 |
| 20260904110028 | 50 | 247 | 0.0 | 0.9 | 0.00 | 0.00 | 0.00 | 87 | 1014.3 |
| 20260904104530 | 50 | 257 | 0.0 | 2.6 | 0.00 | 0.00 | 0.00 | 86 | 1014.2 |
| 20260904103031 | 50 | 283 | 0.9 | 2.6 | 0.00 | 0.00 | 0.00 | 86 | 1014.1 |
| 20260904101608 | 49 | 269 | 0.9 | 2.6 | 0.00 | 0.00 | 0.00 | 87 | 1013.9 |
| 20260904100029 | 49 | 226 | 1.7 | 2.6 | 0.00 | 0.00 | 0.00 | 88 | 1013.9 |
| 20260904094531 | 49 | 224 | 1.7 | 3.5 | 0.00 | 0.00 | 0.00 | 88 | 1013.9 |
| 20260904093029 | 48 | 225 | 0.9 | 2.6 | 0.00 | 0.00 | 0.00 | 88 | 1013.8 |
| 20260904091608 | 49 | 228 | 0.9 | 1.7 | 0.00 | 0.00 | 0.00 | 87 | 1013.7 |
| 20260904090030 | 49 | 226 | 0.9 | 2.6 | 0.00 | 0.00 | 0.00 | 86 | 1013.8 |
| 20260904083030 | 49 | 232 | 0.9 | 2.6 | 0.00 | 0.00 | 0.00 | 86 | 1013.6 |
| 20260904081530 | 49 | 231 | 1.7 | 3.5 | 0.00 | 0.00 | 0.00 | 86 | 1013.6 |
| 20260904080032 | 49 | 236 | 0.9 | 3.5 | 0.00 | 0.00 | 0.00 | 86 | 1013.7 |
| 20260904074606 | 49 | 265 | 0.9 | 1.7 | 0.00 | 0.00 | 0.00 | 86 | 1013.5 |
| 20260904073030 | 49 | 242 | 0.9 | 2.6 | 0.00 | 0.00 | 0.00 | 85 | 1013.5 |
| 20260904071531 | 49 | 284 | 0.9 | 2.6 | 0.00 | 0.00 | 0.00 | 86 | 1013.5 |
| 20260904070029 | 49 | 277 | 0.9 | 3.5 | 0.00 | 0.00 | 0.00 | 86 | 1013.4 |
| 20260904063031 | 0 | 0 | 0.0 | 0.0 | 0.00 | 0.00 | 0.00 | 100 | |
| 20260904060030 | 53 | 292 | 1.7 | 1.7 | 0.00 | 0.00 | 0.00 | 79 | 1013.2 |
| 20260904054532 | 53 | 292 | 0.9 | 2.6 | 0.00 | 0.00 | 0.00 | 79 | 1013.2 |
| 20260904053031 | 53 | 317 | 0.9 | 1.7 | 0.00 | 0.00 | 0.00 | 79 | 1013.3 |
| 20260904051532 | 0 | 0 | 0.0 | 0.0 | 0.00 | 0.00 | 0.00 | 100 | |
| 20260904050029 | 0 | 0 | 0.0 | 0.0 | 0.00 | 0.00 | 0.00 | 100 | |
| 20260904044529 | 0 | 0 | 0.0 | 0.0 | 0.00 | 0.00 | 0.00 | 100 | |
| 20260904043032 | 0 | 0 | 0.0 | 0.0 | 0.00 | 0.00 | 0.00 | 100 | |
| 20260904040029 | 53 | 294 | 0.9 | 2.6 | 0.00 | 0.01 | 0.00 | 82 | 1013.3 |
| 20260904034533 | 53 | 292 | 0.9 | 3.5 | 0.00 | 0.03 | 0.00 | 83 | 1013.2 |
| 20260904033029 | 54 | 312 | 0.9 | 0.9 | 0.00 | 0.06 | 0.00 | 84 | 1012.9 |
| 20260904031529 | 0 | 0 | 0.0 | 0.0 | 0.00 | 0.16 | 0.00 | 100 | |
| 20260904030145 | 55 | 1 | 0.9 | 2.6 | 0.00 | 0.32 | 0.00 | 80 | 1012.6 |
| 20260904024531 | 0 | 0 | 0.0 | 0.0 | 0.00 | 0.32 | 0.00 | 100 | |
| 20260904021529 | 55 | 357 | 0.9 | 3.5 | 0.00 | 0.32 | 0.00 | 78 | 1012.6 |
| 20260904014539 | 56 | 1 | 0.9 | 3.5 | 0.00 | 0.32 | 0.00 | 77 | 1012.3 |
| 20260904013031 | 56 | 36 | 0.9 | 4.3 | 0.00 | 0.32 | 0.00 | 75 | 1012.0 |
| 20260904004531 | 58 | 28 | 1.7 | 7.0 | 0.00 | 0.32 | 0.00 | 70 | 1012.1 |
| 20260904003031 | 59 | 22 | 1.7 | 6.1 | 0.00 | 0.32 | 0.00 | 67 | 1012.0 |